When you browse on this site, cookies collect data to enhance your experience and personalize the content and advertising you see.
Visit our Privacy Policy to learn more. By continuing to use the site, you agree to this use of cookies and data.
  • In Hungary
  • List of Countries
  • For 7 days
  • Water Temperature
  • Weather Map
  • News
  • Weather Widgets
  • user-avatar
    Login

    Hourly Weather Čajniče

    Today, 17 November, Sunday

    Time Temperature Precipitation Wind Pressure Humidity
    00:00 +8°C° 0 mm 1 mps 675 mmHg 95%
    01:00 +7°C° 0 mm 2 mps 674 mmHg 95%
    02:00 +6°C° 0 mm 2 mps 674 mmHg 95%
    03:00 +7°C° 0 mm 1 mps 674 mmHg 95%
    04:00 +7°C° 0 mm 1 mps 674 mmHg 95%
    05:00 +7°C° 0 mm 1 mps 674 mmHg 95%
    06:00 +6°C° 0 mm 1 mps 674 mmHg 94%
    07:00 +5°C° 0 mm 2 mps 674 mmHg 94%
    08:00 +7°C° 0 mm 2 mps 674 mmHg 87%
    09:00 +9°C° 0 mm 2 mps 674 mmHg 80%
    10:00 +12°C° 0 mm 2 mps 674 mmHg 73%
    11:00 +13°C° 0 mm 2 mps 674 mmHg 69%
    12:00 +13°C° 0 mm 2 mps 674 mmHg 65%
    13:00 +14°C° 0 mm 2 mps 674 mmHg 67%
    14:00 +13°C° 0 mm 2 mps 674 mmHg 71%
    15:00 +12°C° 0 mm 2 mps 673 mmHg 75%
    16:00 +10°C° 0 mm 2 mps 673 mmHg 79%
    17:00 +9°C° 0 mm 2 mps 673 mmHg 81%
    18:00 +9°C° 0 mm 2 mps 673 mmHg 82%
    19:00 +8°C° 0 mm 2 mps 673 mmHg 83%
    20:00 +8°C° 0.1 mm 2 mps 672 mmHg 85%
    21:00 +7°C° 0.1 mm 2 mps 672 mmHg 86%
    22:00 +8°C° 0.1 mm 1 mps 672 mmHg 87%
    23:00 +7°C° 0 mm 2 mps 671 mmHg 88%

    Tomorrow, 18 November, Monday

    Time Temperature Precipitation Wind Pressure Humidity
    00:00 +7°C° 0 mm 2 mps 671 mmHg 88%
    01:00 +7°C° 0 mm 2 mps 671 mmHg 88%
    02:00 +7°C° 0.4 mm 2 mps 671 mmHg 88%
    03:00 +7°C° 0.4 mm 2 mps 671 mmHg 88%
    04:00 +7°C° 0.4 mm 2 mps 671 mmHg 88%
    05:00 +6°C° 0 mm 2 mps 671 mmHg 89%
    06:00 +6°C° 0 mm 2 mps 671 mmHg 91%
    07:00 +5°C° 0 mm 2 mps 672 mmHg 92%
    08:00 +7°C° 0.1 mm 2 mps 673 mmHg 86%
    09:00 +8°C° 0.1 mm 2 mps 674 mmHg 80%
    10:00 +9°C° 0.1 mm 3 mps 674 mmHg 74%
    11:00 +10°C° 0 mm 2 mps 675 mmHg 68%
    12:00 +10°C° 0 mm 2 mps 675 mmHg 63%
    13:00 +12°C° 0 mm 2 mps 676 mmHg 57%
    14:00 +10°C° 0 mm 2 mps 676 mmHg 62%
    15:00 +10°C° 0 mm 1 mps 676 mmHg 68%
    16:00 +8°C° 0 mm 1 mps 676 mmHg 73%
    17:00 +7°C° 0 mm 1 mps 676 mmHg 78%
    18:00 +6°C° 0 mm 1 mps 676 mmHg 82%
    19:00 +5°C° 0 mm 1 mps 676 mmHg 87%
    20:00 +5°C° 0 mm 1 mps 676 mmHg 86%
    21:00 +5°C° 0 mm 1 mps 676 mmHg 85%
    22:00 +4°C° 0 mm 1 mps 676 mmHg 85%
    23:00 +4°C° 0 mm 1 mps 676 mmHg 82%

    Day after tomorrow, 19 November, Tuesday

    Time Temperature Precipitation Wind Pressure Humidity
    00:00 +3°C° 0 mm 1 mps 676 mmHg 79%
    01:00 +3°C° 0 mm 1 mps 676 mmHg 76%
    02:00 +3°C° 0 mm 1 mps 676 mmHg 75%
    03:00 +3°C° 0 mm 1 mps 676 mmHg 73%
    04:00 +3°C° 0 mm 1 mps 676 mmHg 72%
    05:00 +4°C° 0 mm 1 mps 676 mmHg 72%
    06:00 +4°C° 0 mm 1 mps 676 mmHg 71%
    07:00 +4°C° 0 mm 1 mps 676 mmHg 71%
    08:00 +6°C° 0 mm 1 mps 677 mmHg 67%
    09:00 +7°C° 0 mm 1 mps 677 mmHg 64%
    10:00 +9°C° 0 mm 1 mps 677 mmHg 60%
    11:00 +10°C° 0 mm 1 mps 677 mmHg 58%
    12:00 +11°C° 0 mm 1 mps 677 mmHg 56%
    13:00 +12°C° 0 mm 1 mps 677 mmHg 54%
    14:00 +11°C° 0 mm 1 mps 677 mmHg 61%
    15:00 +9°C° 0 mm 1 mps 676 mmHg 67%
    16:00 +7°C° 0 mm 0 mps 676 mmHg 73%
    17:00 +7°C° 0 mm 1 mps 676 mmHg 75%
    18:00 +7°C° 0 mm 1 mps 675 mmHg 77%
    19:00 +6°C° 0 mm 1 mps 675 mmHg 79%
    20:00 +6°C° 0 mm 1 mps 675 mmHg 79%
    21:00 +6°C° 0 mm 1 mps 675 mmHg 80%
    22:00 +5°C° 0 mm 0 mps 675 mmHg 80%
    23:00 +5°C° 0.1 mm 0 mps 675 mmHg 82%

    20 November, Wednesday

    Time Temperature Precipitation Wind Pressure Humidity
    00:00 +5°C° 0.1 mm 0 mps 675 mmHg 84%
    01:00 +5°C° 0.1 mm 0 mps 675 mmHg 86%
    02:00 +5°C° 0.4 mm 0 mps 674 mmHg 87%
    03:00 +5°C° 0.4 mm 0 mps 674 mmHg 89%
    04:00 +5°C° 0.4 mm 0 mps 673 mmHg 90%
    05:00 +5°C° 0.5 mm 0 mps 673 mmHg 92%
    06:00 +5°C° 0.5 mm 0 mps 673 mmHg 93%
    07:00 +5°C° 0.5 mm 0 mps 673 mmHg 95%
    08:00 +5°C° 1 mm 0 mps 673 mmHg 95%
    09:00 +6°C° 1 mm 0 mps 673 mmHg 94%
    10:00 +6°C° 1 mm 0 mps 673 mmHg 94%
    11:00 +7°C° 0.3 mm 0 mps 674 mmHg 91%
    12:00 +7°C° 0.3 mm 0 mps 674 mmHg 88%
    13:00 +8°C° 0.3 mm 0 mps 674 mmHg 85%
    14:00 +7°C° 0.1 mm 0 mps 674 mmHg 87%
    15:00 +8°C° 0.1 mm 1 mps 674 mmHg 90%
    16:00 +7°C° 0.1 mm 1 mps 674 mmHg 93%
    17:00 +7°C° 0 mm 1 mps 674 mmHg 93%
    18:00 +7°C° 0 mm 1 mps 674 mmHg 93%
    19:00 +6°C° 0 mm 1 mps 674 mmHg 93%
    20:00 +6°C° 0 mm 1 mps 674 mmHg 93%
    21:00 +6°C° 0 mm 1 mps 674 mmHg 94%
    22:00 +5°C° 0 mm 1 mps 675 mmHg 94%
    23:00 +5°C° 0 mm 1 mps 674 mmHg 94%

    21 November, Thursday

    Time Temperature Precipitation Wind Pressure Humidity
    00:00 +5°C° 0 mm 1 mps 674 mmHg 94%
    01:00 +4°C° 0 mm 1 mps 674 mmHg 95%
    02:00 +4°C° 0 mm 1 mps 674 mmHg 95%
    03:00 +4°C° 0 mm 1 mps 674 mmHg 95%
    04:00 +4°C° 0 mm 1 mps 674 mmHg 95%
    05:00 +4°C° 0 mm 1 mps 674 mmHg 95%
    06:00 +4°C° 0 mm 1 mps 674 mmHg 95%
    07:00 +4°C° 0 mm 1 mps 674 mmHg 95%
    08:00 +5°C° 0 mm 1 mps 674 mmHg 90%
    09:00 +7°C° 0 mm 1 mps 675 mmHg 85%
    10:00 +9°C° 0 mm 1 mps 675 mmHg 80%
    11:00 +9°C° 0 mm 1 mps 675 mmHg 77%
    12:00 +10°C° 0 mm 1 mps 675 mmHg 73%
    13:00 +10°C° 0 mm 0 mps 675 mmHg 70%
    14:00 +9°C° 0 mm 0 mps 675 mmHg 75%
    15:00 +8°C° 0 mm 0 mps 674 mmHg 80%
    16:00 +7°C° 0 mm 0 mps 674 mmHg 84%
    17:00 +6°C° 0 mm 0 mps 674 mmHg 86%
    18:00 +6°C° 0 mm 0 mps 674 mmHg 88%
    19:00 +5°C° 0 mm 0 mps 674 mmHg 89%
    20:00 +5°C° 0 mm 0 mps 674 mmHg 90%
    21:00 +5°C° 0 mm 0 mps 675 mmHg 90%
    22:00 +4°C° 0 mm 0 mps 675 mmHg 91%
    23:00 +4°C° 0 mm 0 mps 675 mmHg 91%

    22 November, Friday

    Time Temperature Precipitation Wind Pressure Humidity
    00:00 +4°C° 0 mm 0 mps 675 mmHg 91%
    01:00 +4°C° 0 mm 0 mps 675 mmHg 92%
    02:00 +3°C° 0 mm 0 mps 675 mmHg 92%
    03:00 +3°C° 0 mm 0 mps 675 mmHg 92%
    04:00 +3°C° 0 mm 0 mps 674 mmHg 93%
    05:00 +3°C° 0 mm 0 mps 675 mmHg 93%
    06:00 +2°C° 0 mm 0 mps 675 mmHg 93%
    07:00 +2°C° 0 mm 0 mps 675 mmHg 92%
    08:00 +4°C° 0 mm 0 mps 675 mmHg 85%
    09:00 +6°C° 0 mm 0 mps 676 mmHg 78%
    10:00 +8°C° 0 mm 0 mps 677 mmHg 71%
    11:00 +9°C° 0 mm 0 mps 677 mmHg 66%
    12:00 +10°C° 0 mm 0 mps 676 mmHg 62%
    13:00 +11°C° 0 mm 0 mps 676 mmHg 57%
    14:00 +10°C° 0 mm 0 mps 676 mmHg 63%
    15:00 +8°C° 0 mm 0 mps 676 mmHg 69%
    16:00 +6°C° 0 mm 0 mps 675 mmHg 75%
    17:00 +6°C° 0 mm 0 mps 675 mmHg 77%
    18:00 +6°C° 0 mm 1 mps 676 mmHg 79%
    19:00 +5°C° 0 mm 1 mps 676 mmHg 81%
    20:00 +5°C° 0 mm 1 mps 676 mmHg 81%
    21:00 +4°C° 0 mm 1 mps 676 mmHg 82%
    22:00 +4°C° 0 mm 1 mps 676 mmHg 82%
    23:00 +4°C° 0 mm 1 mps 675 mmHg 81%
    Show more